Location: Bangkok
(13.7500°N, 100.5170°E)
Time: 17:56:12
(UTC+07:00)

Hubble Space Telescope - Visible Passes

Search period start: 17 January 2017 00:00
Search period end: 27 January 2017 00:00
Orbit: 538 x 542 km, 28.5° (Epoch: 17 January)

Date Brightness Start Highest point End Pass type
(mag) Time Alt. Az. Time Alt. Az. Time Alt. Az.
17 Jan 2.8 19:43:19 10° NNW 19:44:55 17° NNW 19:44:55 17° NNW visible
18 Jan 2.2 19:33:11 10° NW 19:35:56 25° N 19:35:56 25° N visible
19 Jan 1.5 19:23:05 10° NW 19:26:50 33° NNE 19:27:04 33° NNE visible
20 Jan 1.2 19:13:01 10° NW 19:16:58 43° NNE 19:18:21 31° ENE visible
21 Jan 0.8 19:02:59 10° NW 19:07:04 59° NNE 19:09:47 20° E visible
21 Jan 4.0 20:44:47 10° W 20:45:13 12° W 20:45:13 12° W visible
22 Jan 0.7 18:53:01 10° WNW 18:57:09 81° NNE 19:01:18 10° ESE visible
22 Jan 3.6 20:35:24 10° WSW 20:36:47 15° WSW 20:36:47 15° WSW visible
23 Jan 1.0 18:43:06 10° WNW 18:47:13 72° SSW 18:51:21 10° ESE visible
23 Jan 3.6 20:26:26 10° WSW 20:28:17 13° SSW 20:28:30 13° SSW visible
24 Jan 1.7 18:33:16 10° WNW 18:37:17 50° SSW 18:41:18 10° SE visible
